KIND Airport Diagram

We have created a template for each of the higher traffic airports in the vZID airspace. They include KCMH, KCRW, KCVG, KDAY, KIND, KLEX and KSDF. You wil find usefull information including the airport diagram, weather, and specific airport procedures.

KIND Weather

[Source: ADDS]
METAR
KIND 281354Z 17009KT 10SM OVC250 21/12 A3013 RMK AO2 SLP200 T02060122 =
TAF
KIND 281122Z 2812/2918 16005KT P6SM FEW250 FM281600 18011KT P6SM SCT200 FM290600 19007KT P6SM SCT200 WS020/21040KT FM290900 19007KT P6SM FEW050 SCT200 WS020/23035KT FM291200 20008KT P6SM SCT045 SCT150 =

KIND Operations

Calm Wind Configuration is runways 23L and 23R

Runway 23L typically departs south and east

Runway 23R typicall departs north and west

New Scenery is available at FlightSim.com and Blueprint Simulations. On initial contact, arriving aircraft should notify the the controller which scenery they have.

FedEx pilots should expect runway 23L or 5R.

 

JSN Epic template designed by JoomlaShine.com